• Join FlightAware (Why Join?)
  • Login
  • US Flag 
01:03PM EST


 

Airport Tracker/Info


-or-


 

Live Flight TrackerFlight Track Log ✈ USC105 ✈ 08-Apr-2013 ✈ KLCK - KBKL

Flight Track Log - Related Links

Times and Time Zones

All times are in EDT time to prevent confusion due to time zone crossing. See the USC105 flight status page for this flight to view local times or setup timezone preferences in your user account.

Time Position Orientation Groundspeed Altitude Reporting Facility
EDT Latitude Longitude Course Direction KTS MPH feet Rate Location/Type
09:55PM 39.8058 -82.9419 154° Southeast 103 119 1,100  Level Indianapolis Center
09:56PM 39.7958 -82.9356 154° Southeast 116 133 2,000 990 Climbing Indianapolis Center
09:57PM 39.8292 -82.9042 36° Northeast 173 199 2,700 553 Climbing Indianapolis Center
09:57PM 39.8339 -82.9003 32° Northeast 165 190 2,700 300 Level Indianapolis Center
09:58PM 39.8731 -82.8764 25° Northeast 197 227 3,000 492 Climbing Indianapolis Center
09:58PM 39.8867 -82.8656 31° Northeast 174 200 3,200 492 Climbing Indianapolis Center
09:59PM 39.9192 -82.8436 27° Northeast 191 220 3,500 492 Climbing Indianapolis Center
09:59PM 39.9342 -82.8339 26° Northeast 184 212 3,700 393 Climbing Indianapolis Center
10:00PM 39.9694 -82.8111 26° Northeast 191 220 3,900 295 Climbing Indianapolis Center
10:00PM 39.9819 -82.8025 28° Northeast 189 217 4,000 400 Climbing Indianapolis Center
10:01PM 40.0175 -82.7811 25° Northeast 189 217 4,300 393 Climbing Indianapolis Center
10:01PM 40.0286 -82.7706 36° Northeast 189 217 4,400 393 Climbing Indianapolis Center
10:02PM 40.0614 -82.7481 28° Northeast 184 212 4,700 393 Climbing Indianapolis Center
10:02PM 40.0739 -82.7392 29° Northeast 187 215 4,800 492 Climbing Indianapolis Center
10:03PM 40.1075 -82.7178 26° Northeast 184 212 5,200 393 Climbing Indianapolis Center
10:03PM 40.1203 -82.7075 32° Northeast 185 213 5,200 300 Level Indianapolis Center
10:04PM 40.1514 -82.6844 30° Northeast 185 213 5,500 393 Climbing Indianapolis Center
10:04PM 40.1647 -82.6739 31° Northeast 184 212 5,600 590 Climbing Indianapolis Center
10:05PM 40.1997 -82.6517 26° Northeast 183 211 6,100 590 Climbing Indianapolis Center
10:05PM 40.2086 -82.6425 38° Northeast 179 206 6,200 456 Climbing Indianapolis Center
10:06PM 40.2492 -82.6144 28° Northeast 176 203 6,700 404 Climbing Indianapolis Center
10:07PM 40.2853 -82.5872 30° Northeast 181 208 6,900 197 Climbing Indianapolis Center
10:07PM 40.2925 -82.5797 38° Northeast 180 207 6,900  Level Indianapolis Center
10:08PM 40.3317 -82.5486 31° Northeast 201 231 6,900  Level Indianapolis Center
10:08PM 40.3414 -82.5383 39° Northeast 202 232 6,900  Level Indianapolis Center
10:09PM 40.3986 -82.5019 26° Northeast 197 227 6,900  Level Indianapolis Center
10:10PM 40.4458 -82.4625 32° Northeast 199 229 6,900  Level Indianapolis Center
10:11PM 40.4953 -82.4256 30° Northeast 203 234 6,900  Level Indianapolis Center
10:12PM 40.5464 -82.3953 24° Northeast 199 229 6,900  Level Indianapolis Center
10:13PM 40.5947 -82.3564 31° Northeast 201 231 6,900 -98 Level Indianapolis Center
10:14PM 40.6439 -82.3200 29° Northeast 201 231 6,700 -375 Descending Indianapolis Center
10:15PM 40.6900 -82.2919 25° Northeast 221 254 6,200 -532 Descending Cleveland Center
10:16PM 40.7533 -82.2442 30° Northeast 226 260 5,600 -448 Descending Cleveland Center
10:17PM 40.8103 -82.2017 29° Northeast 223 257 5,200 -298 Descending Cleveland Center
10:18PM 40.8631 -82.1592 31° Northeast 221 254 5,000 -94 Descending Cleveland Center
10:19PM 40.9178 -82.1192 29° Northeast 208 239 5,000 50 Level Cleveland Center
10:20PM 40.9661 -82.0928 22° Northeast 205 236 5,100 -261 Climbing Cleveland Center
10:21PM 41.0147 -82.0389 40° Northeast 225 259 4,500 -466 Descending Cleveland Center
10:22PM 41.0569 -81.9875 43° Northeast 231 266 4,200 -365 Descending Cleveland Center
10:23PM 41.1097 -81.9389 35° Northeast 229 264 3,800 -522 Descending Cleveland Center
10:24PM 41.1583 -81.8903 37° Northeast 232 267 3,200 -365 Descending Cleveland Center
10:25PM 41.2108 -81.8444 33° Northeast 228 262 3,100 -99 Descending Cleveland Center
10:26PM 41.2614 -81.8042 31° Northeast 217 250 3,000  Descending Cleveland Center
10:27PM 41.3097 -81.7636 32° Northeast 216 249 3,100  Climbing Cleveland Center
10:28PM 41.3581 -81.7228 32° Northeast 224 258 3,000 -197 Descending Cleveland Center
10:29PM 41.4086 -81.6739 36° Northeast 211 243 2,700 -236 Descending Cleveland Center
10:30PM 41.4633 -81.6250 34° Northeast 201 231 2,500 -236 Descending Cleveland Center
10:31PM 41.5111 -81.6258 359° North 167 192 2,200 -656 Descending Cleveland Center
10:32PM 41.5317 -81.6567 312° West 111 128 1,100 -985 Descending Cleveland Center